sat.trackr.live / text

‹ back to catalog

STARLINK-36718

NORAD 67715 · 2026-025Y

PAYLOAD ACTIVE UNKNOWN

§ Identity

Operator
Country
US
Launch date
2026-02-07
Launch site
AFWTR
Launch vehicle
Mass (kg)
RCS (m²)

Purposes: comms

External: N2YO · Heavens-Above · Gunter

§ Orbital elements

Epoch: 2026-05-25T01:08:03.740928Z

Period
93.91 min
Inclination
97.2846°
Eccentricity
0.0000527
Mean motion
15.33443051 rev/d
Perigee alt
465.2 km
Apogee alt
465.9 km
Semi-major
6,843.7 km
B*
7.2018e-4
RAAN
256.6536°
Arg perigee
67.9821°
Mean anomaly
292.1477°
Rev number
1,771

§ Raw data

STARLINK-367181 67715U 26025Y   26145.04726552  .00023245  00000+0  72018-3 0  99962 67715  97.2846 256.6536 0000527  67.9821 292.1477 15.33443051 17711

JSON: /api/v1/satellites/67715 · /tle

For live sub-satellite position, see the globe view (requires WebGL).

§ Visibility from observer

Set your observer location to see the next 7 days of passes ≥ 10°. The values pass through the URL so the page stays shareable.

No JS? Fill the form by hand. The geolocation button needs JavaScript.